This is the latest recevied weather packets stored in our database for station/object K3BAY-1. If no packets are shown the sender has not sent any weather packets the latest 10 day(s).
| Time | Temp. | Humidity | Pressure | Rain* | Wind** | Luminosity | Snow |
|---|---|---|---|---|---|---|---|
| 1777338486 | 13.33° C | 76% | 1023.7 hPa | 0 mm | - | 0 W/m² | - |
| 1777338183 | 13.33° C | 76% | 1023.7 hPa | 0 mm | - | 0 W/m² | - |
| 1777337879 | 13.33° C | 76% | 1023.7 hPa | 0 mm | - | 0 W/m² | - |
| 1777337576 | 13.33° C | 75% | 1024.1 hPa | 0 mm | - | 0 W/m² | - |
| 1777337273 | 13.33° C | 75% | 1023.7 hPa | 0 mm | - | 0 W/m² | - |
| 1777336971 | 13.89° C | 74% | 1024.1 hPa | 0 mm | - | 0 W/m² | - |
| 1777336670 | 13.89° C | 74% | 1024.1 hPa | 0 mm | - | 0 W/m² | - |
| 1777336368 | 13.89° C | 74% | 1024.1 hPa | 0 mm | - | 0 W/m² | - |
| 1777336064 | 14.44° C | 73% | 1024.1 hPa | 0 mm | - | 0 W/m² | - |
| 1777335761 | 14.44° C | 72% | 1024.1 hPa | 0 mm | - | 0 W/m² | - |
| 1777335458 | 14.44° C | 71% | 1024.1 hPa | 0 mm | - | 0 W/m² | - |
| 1777335155 | 15° C | 70% | 1024.4 hPa | 0 mm | - | 0 W/m² | - |
| 1777334853 | 15° C | 69% | 1024.1 hPa | 0 mm | - | 0 W/m² | - |
| 1777334551 | 16.11° C | 65% | 1024.4 hPa | 0 mm | - | 0 W/m² | - |
| 1777334247 | 16.11° C | 65% | 1024.4 hPa | 0 mm | - | 0 W/m² | - |
| 1777333946 | 16.67° C | 64% | 1024.4 hPa | 0 mm | - | 1 W/m² | - |
| 1777333644 | 16.67° C | 63% | 1024.4 hPa | 0 mm | - | 3 W/m² | - |
| 1777333340 | 16.67° C | 61% | 1024.7 hPa | 0 mm | - | 6 W/m² | - |
| 1777333039 | 17.22° C | 60% | 1024.7 hPa | 0 mm | - | 6 W/m² | - |
| 1777332737 | 17.78° C | 58% | 1024.7 hPa | 0 mm | - | 12 W/m² | - |
| 1777332433 | 17.78° C | 57% | 1024.7 hPa | 0 mm | - | 13 W/m² | - |
| 1777332129 | 18.89° C | 56% | 1024.7 hPa | 0 mm | - | 16 W/m² | - |
| 1777331827 | 19.44° C | 54% | 1024.7 hPa | 0 mm | - | 20 W/m² | - |
| 1777331523 | 19.44° C | 52% | 1024.7 hPa | 0 mm | - | 25 W/m² | - |
| 1777331222 | 20° C | 50% | 1025.1 hPa | 0 mm | - | 26 W/m² | - |
* Rain latest hour (hover to see other rain measurements)
** Current wind speed in m/s (hover to see current wind gust speed)